Chattanooga, TN

10:55 AM EDT on March 24, 2017 (GMT -0400)
Lovell

Weather History for KCHA - December, 2014

Change the Weather History Date:

Friday, December 5, 2014

  Actual Average Record
Temperature  
Mean Temperature 56 °F 45 °F  
Max Temperature 62 °F 55 °F 77 °F (1998)
Min Temperature 49 °F 35 °F 18 °F (1974)
Degree Days  
Heating Degree Days 9 20  
Month to date heating degree days 38 98  
Since 1 July heating degree days 714 687  
Growing Degree Days 5 (Base 50)    
Moisture  
Dew Point 52 °F    
Average Humidity 87    
Maximum Humidity 96    
Minimum Humidity 78    
Precipitation  
Precipitation 0.07 in 0.18 in 2.89 in (1910)
Month to date precipitation 0.21 0.89  
Year to date precipitation 41.09 48.47  
Snow  
Snow 0.00 in 0.00 in - ()
Month to date snowfall 0.0 0.0  
Since 1 July snowfall T T  
Snow Depth 0.00 in    
Sea Level Pressure  
Sea Level Pressure 30.29 in    
Wind  
Wind Speed 4 mph (SSE)    
Max Wind Speed 13 mph    
Max Gust Speed 19 mph    
Visibility 8 miles    
Events Rain    
T = Trace of Precipitation, MM = Missing Value Source: NWS Daily Summary

Daily Weather History Graph

Daily Weather History Graph

Search for Another Location

Airport or City:

Trip Planner

Search our weather history database for the weather conditions in past years. The results will help you decide how hot, cold, wet, or windy it might be!

Date:

Astronomy

Dec. 05, 2014 Rise Set
Actual Time 7:33 AM EST 5:28 PM EST
Civil Twilight 7:06 AM EST 5:56 PM EST
Nautical Twilight 6:34 AM EST 6:28 PM EST
Astronomical Twilight 6:03 AM EST 6:58 PM EST
Moon 5:12 PM EST (12/5) 6:29 AM EST (12/5)
Length of Visible Light 10h 50m
Length of Day
9h 54m
Waxing Gibbous, 99% of the Moon is Illuminated
Dec 5
Waxing Gibbous
Dec 6
Full
Dec 14
Last Quarter
Dec 21
New
Dec 28
First Quarter

Hourly Weather History & Observations

Time (EST) Temp. Dew Point Humidity Pressure Visibility Wind Dir Wind Speed Gust Speed Precip Events Conditions
12:53 AM 51.1 °F 48.0 °F 89% 30.27 in 10.0 mi Calm Calm - N/A   Scattered Clouds
1:53 AM 51.1 °F 48.0 °F 89% 30.28 in 10.0 mi Calm Calm - N/A   Partly Cloudy
2:53 AM 50.0 °F 48.0 °F 93% 30.29 in 8.0 mi Calm Calm - N/A   Overcast
3:53 AM 50.0 °F 48.0 °F 93% 30.30 in 9.0 mi Calm Calm - N/A   Mostly Cloudy
4:12 AM 50.0 °F 48.0 °F 93% 30.30 in 10.0 mi Calm Calm - N/A   Overcast
4:53 AM 51.1 °F 48.9 °F 92% 30.30 in 9.0 mi Calm Calm - N/A   Overcast
5:53 AM 52.0 °F 48.0 °F 86% 30.30 in 10.0 mi SE 4.6 mph - N/A   Overcast
6:50 AM 51.8 °F 48.2 °F 88% 30.31 in 7.0 mi Calm Calm - N/A   Overcast
6:53 AM 51.8 °F 50.0 °F 94% 30.31 in 7.0 mi Calm Calm - N/A   Overcast
7:53 AM 54.0 °F 50.0 °F 86% 30.33 in 5.0 mi Calm Calm - N/A   Overcast
8:53 AM 55.9 °F 53.1 °F 90% 30.35 in 4.0 mi South 3.5 mph - N/A   Overcast
9:53 AM 57.9 °F 54.0 °F 87% 30.36 in 4.0 mi South 6.9 mph - N/A   Overcast
10:16 AM 57.0 °F 54.0 °F 89% 30.36 in 2.0 mi SSE 10.4 mph - 0.00 in Rain Light Rain
10:53 AM 57.9 °F 55.0 °F 90% 30.35 in 2.5 mi SSE 6.9 mph - 0.02 in   Overcast
11:29 AM 57.9 °F 55.0 °F 90% 30.34 in 3.0 mi SSE 5.8 mph - N/A   Overcast
11:53 AM 57.9 °F 54.0 °F 87% 30.33 in 4.0 mi South 8.1 mph 16.1 mph N/A   Overcast
12:53 PM 59.0 °F 54.0 °F 83% 30.30 in 4.0 mi SSE 5.8 mph - N/A   Haze
1:53 PM 59.0 °F 54.0 °F 83% 30.27 in 5.0 mi South 5.8 mph - N/A   Haze
2:53 PM 60.1 °F 54.0 °F 80% 30.26 in 6.0 mi South 5.8 mph - N/A   Haze
3:53 PM 61.0 °F 54.0 °F 78% 30.25 in 9.0 mi South 6.9 mph - N/A   Overcast
4:35 PM 62.1 °F 54.0 °F 75% 30.25 in 10.0 mi SSE 6.9 mph - N/A   Overcast
4:53 PM 61.0 °F 53.1 °F 75% 30.25 in 10.0 mi SSE 5.8 mph - N/A   Overcast
5:53 PM 60.1 °F 53.1 °F 78% 30.25 in 10.0 mi SE 3.5 mph - N/A   Overcast
6:53 PM 57.9 °F 52.0 °F 81% 30.26 in 10.0 mi Variable 4.6 mph - N/A   Overcast
7:53 PM 57.0 °F 51.1 °F 81% 30.25 in 10.0 mi SSE 6.9 mph - 0.00 in Rain Light Rain
8:53 PM 55.9 °F 52.0 °F 87% 30.24 in 10.0 mi SSE 5.8 mph - 0.00 in Rain Light Rain
9:53 PM 57.0 °F 52.0 °F 83% 30.23 in 10.0 mi South 6.9 mph - 0.00 in   Overcast
10:00 PM 57.0 °F 52.0 °F 83% 30.23 in 10.0 mi South 8.1 mph - N/A   Overcast
10:53 PM 57.0 °F 53.1 °F 87% 30.23 in 8.0 mi SSE 5.8 mph - 0.01 in Rain Light Rain
11:53 PM 55.9 °F 53.1 °F 90% 30.22 in 6.0 mi SSE 4.6 mph - 0.03 in Rain Rain